Regional Weather Roundup
Issued by NWS

Home | Current Version | Previous Version | Text Only | Print | Product List | Glossary On
Versions: 1 2 3 4 5 6 7 8 9 10 11 12 13 14 15 16 17 18 19 20 21 22 23 24 25 26 27 28 29 30 31 32 33 34 35 36 37 38 39 40 41 42 43 44 45 46 47 48 49 50
000
ASUS43 KLSX 301707
RWRMO

WEATHER SUMMARY FOR MISSOURI
NATIONAL WEATHER SERVICE SPRINGFIELD MO
1200 PM CDT WED JUL 30 2014

NOTE: "FAIR" INDICATES FEW OR NO CLOUDS BELOW 12,000 FEET WITH NO
       SIGNIFICANT WEATHER AND/OR OBSTRUCTIONS TO VISIBILITY.
       CURRENT SKY AND/OR WEATHER CONDITIONS ARE NOT AVAILABLE FOR
       CHILLICOTHE AND FARMINGTON.

MOZ001>031-035>038-043-044-053-054-301800-
...NORTHERN AND WESTERN MISSOURI...

CITY           SKY/WX    TMP DP  RH WIND       PRES   REMARKS
KANSAS CTY INT PTSUNNY   75  59  57 VRB3      30.14R
KANSAS C DTWN  FAIR      77  58  51 CALM      30.12S
LEE`S SUMMIT   FAIR      75  59  57 NE6       30.14R
ST JOSEPH      FAIR      77  58  51 VRB3      30.14R
CHILLICOTHE      N/A     78  56  46 E5        30.13S
KIRKSVILLE     PTSUNNY   76  56  49 NW6       30.13S

$$
MOZ066>068-077>081-088>096-101>105-301800-
...SOUTHWEST MISSOURI...

CITY           SKY/WX    TMP DP  RH WIND       PRES   REMARKS
SPRINGFIELD    LGT RAIN  70  63  78 SW7       30.12R
JOPLIN         LGT RAIN  67  66  97 VRB5      30.13R FOG

$$
MOZ032>034-039>042-045>050-055>058-069>072-301800-
...CENTRAL MISSOURI...

CITY           SKY/WX    TMP DP  RH WIND       PRES   REMARKS
COLUMBIA       FAIR      78  57  48 VRB5      30.12S
JEFFERSON CITY FAIR      75  63  66 CALM      30.11S
ROLLA          FAIR      72  59  63 NE5       30.11S
SEDALIA        FAIR      74  63  68 CALM      30.13R
WHITEMAN AFB   MOSUNNY   72  54  53 CALM      30.12R
OSAGE BEACH    PTSUNNY   70  61  73 CALM      30.12R

$$
MOZ051-052-059>065-301800-
...EAST CENTRAL MISSOURI...

CITY           SKY/WX    TMP DP  RH WIND       PRES   REMARKS
ST LOUIS INTL  PTSUNNY   82  54  37 N3        30.10S
SPIRIT OF STL  PTSUNNY   80  52  37 VRB3      30.08F
ST CHARLES     FAIR      79  56  45 W5        30.09S

$$
MOZ072>076-082>087-097>100-106>115-301800-
...SOUTH CENTRAL AND SOUTHEAST MISSOURI...

CITY           SKY/WX    TMP DP  RH WIND       PRES   REMARKS
CAPE GIRARDEAU PTSUNNY   74  60  61 S3        30.12F
FARMINGTON     FAIR      72  59  64 SW3       30.15R
POPLAR BLUFF   CLOUDY    77  60  55 VRB6      30.10F
WEST PLAINS    CLOUDY    73  62  68 SW6       30.13S

$$



USA.gov is the U.S. government's official web portal to all federal, state and local government web resources and services.